Location: Unspecified
(0.0000°N, 0.0000°E)
Time: 14:04:47
(UTC+00:00)

SR - Pass Details

Date: 23 November 2019
Orbit: 573 x 882 km, 66.7° (Epoch: 08 December)

Event Time Altitude Azimuth Distance (km) Brightness Sun altitude
Rises 22:44:11 0° 16° (NNE) 3,363 - -64.5°
Reaches altitude 10° 22:48:32 10° 47° (NE) 2,364 - -65.1°
Maximum altitude 22:50:21 12° 67° (ENE) 2,217 - -65.4°
Drops below altitude 10° 22:52:09 10° 87° (E) 2,300 - -65.6°
Sets 22:56:11 0° 119° (ESE) 3,143 - -66.2°
